This is the latest recevied weather packets stored in our database for station/object VK2HN. If no packets are shown the sender has not sent any weather packets the latest 1 day(s).
| Time | Temp. | Humidity | Pressure | Rain* | Wind** | Luminosity | Snow |
|---|---|---|---|---|---|---|---|
| 1778040640 | 23.33° C | 62% | 1017.6 hPa | 0 mm | - | - | - |
| 1778040340 | 23.33° C | 63% | 1017.6 hPa | 0 mm | - | - | - |
| 1778040040 | 22.78° C | 65% | 1017.7 hPa | 0 mm | - | - | - |
| 1778039740 | 22.78° C | 64% | 1017.7 hPa | 0 mm | - | - | - |
| 1778039440 | 22.78° C | 65% | 1017.8 hPa | 0 mm | - | - | - |
| 1778039140 | 22.22° C | 65% | 1017.9 hPa | 0 mm | - | - | - |
| 1778038840 | 22.78° C | 62% | 1017.9 hPa | 0 mm | - | - | - |
| 1778038540 | 22.78° C | 66% | 1017.9 hPa | 0 mm | - | - | - |
| 1778038240 | 22.78° C | 63% | 1017.9 hPa | 0 mm | - | - | - |
| 1778037940 | 23.33° C | 62% | 1018 hPa | 0 mm | - | - | - |
| 1778037640 | 23.33° C | 63% | 1018.1 hPa | 0 mm | - | - | - |
| 1778037340 | 22.78° C | 63% | 1018.3 hPa | 0 mm | - | - | - |
| 1778037040 | 22.78° C | 61% | 1018.4 hPa | 0 mm | - | - | - |
| 1778036740 | 23.33° C | 64% | 1018.5 hPa | 0 mm | - | - | - |
| 1778036440 | 22.78° C | 62% | 1018.6 hPa | 0 mm | - | - | - |
| 1778036140 | 22.78° C | 63% | 1018.7 hPa | 0 mm | - | - | - |
| 1778035840 | 22.78° C | 64% | 1018.7 hPa | 0 mm | - | - | - |
| 1778035540 | 22.22° C | 65% | 1018.8 hPa | 0 mm | - | - | - |
| 1778035240 | 22.22° C | 64% | 1018.9 hPa | 0 mm | - | - | - |
| 1778034940 | 22.22° C | 63% | 1019 hPa | 0 mm | - | - | - |
| 1778034640 | 22.22° C | 64% | 1019 hPa | 0 mm | - | - | - |
| 1778034340 | 22.22° C | 63% | 1019 hPa | 0 mm | - | - | - |
| 1778034040 | 22.22° C | 65% | 1019.2 hPa | 0 mm | - | - | - |
| 1778033740 | 22.22° C | 65% | 1019.4 hPa | 0 mm | - | - | - |
| 1778033440 | 21.67° C | 64% | 1019.3 hPa | 0 mm | - | - | - |
* Rain latest hour (hover to see other rain measurements)
** Current wind speed in m/s (hover to see current wind gust speed)